Tracking 32936 objects as of 16-Jan-2026
HD Live streaming from Space Station
objects crossing your sky now

YZ-1 R/B

Track YZ-1 R/B now!


NORAD ID: 43625
Int'l Code: 2018-072D
Perigee: 22,138.9 km
Apogee: 22,751.0 km
Inclination: 56.3 °
Period: 811.4 minutes
Semi major axis: 28815 km
RCS: Unknown
Launch date: September 19, 2018
Source: People's Republic of China (PRC)
Launch site: Xichang Space Center, China (XSC)

Note: This is a ROCKET BODY
Your satellite tracking list
Your tracking list is empty




NASA's NSSDC Master Catalog

Two Line Element Set (TLE):
1 43625U 18072D   26015.33901896 -.00000037  00000-0  00000-0 0  9992
2 43625  56.2880  76.2839 0106214  63.2918 297.8526  1.77481691 47474
Source of the keplerian elements: AFSPC